Regional Weather Roundup
Issued by NWS

Home | Current Version | Previous Version | Text Only | Print | Product List | Glossary On
Versions: 1 2 3 4 5 6 7 8 9 10 11 12 13 14 15 16 17 18 19 20 21 22 23 24 25 26 27 28 29 30 31 32 33 34 35 36 37 38 39 40 41 42 43 44 45 46 47 48 49 50
000
ASUS43 KLSX 281607
RWRMO

WEATHER SUMMARY FOR MISSOURI
NATIONAL WEATHER SERVICE SPRINGFIELD MO
1000 AM CST FRI NOV 28 2014

NOTE: "FAIR" INDICATES FEW OR NO CLOUDS BELOW 12,000 FEET WITH NO
       SIGNIFICANT WEATHER AND/OR OBSTRUCTIONS TO VISIBILITY.
       CURRENT SKY AND/OR WEATHER CONDITIONS ARE NOT AVAILABLE FOR
       CHILLICOTHE AND FARMINGTON.

MOZ001>031-035>038-043-044-053-054-281700-
...NORTHERN AND WESTERN MISSOURI...

CITY           SKY/WX    TMP DP  RH WIND       PRES   REMARKS
KANSAS CTY INT MOSUNNY   45  28  51 SW17      29.95F
KANSAS C DTWN  SUNNY     47  27  45 SW15      29.96F
LEE`S SUMMIT   SUNNY     46  28  49 SW20G28   29.98F
ST JOSEPH      SUNNY     42  28  57 SW14      29.94F
CHILLICOTHE      N/A     40  28  62 S12       29.99F
KIRKSVILLE     SUNNY     37  28  70 S12       30.00F WCI  29

$$
MOZ066>068-077>081-088>096-101>105-281700-
...SOUTHWEST MISSOURI...

CITY           SKY/WX    TMP DP  RH WIND       PRES   REMARKS
SPRINGFIELD    SUNNY     45  28  51 S23       30.09F
JOPLIN         SUNNY     52  29  41 SW23G31   30.07F

$$
MOZ032>034-039>042-045>050-055>058-069>072-281700-
...CENTRAL MISSOURI...

CITY           SKY/WX    TMP DP  RH WIND       PRES   REMARKS
COLUMBIA       SUNNY     44  29  55 S20G26    30.06F
JEFFERSON CITY SUNNY     45  28  51 S12G24    30.08F
ROLLA          SUNNY     42  29  59 S17       30.09F
SEDALIA        SUNNY     47  28  47 SW23G29   30.03F
WHITEMAN AFB   SUNNY     46  29  50 SW18G26   30.01F
OSAGE BEACH    SUNNY     46  28  49 S14G21    30.08F

$$
MOZ051-052-059>065-281700-
...EAST CENTRAL MISSOURI...

CITY           SKY/WX    TMP DP  RH WIND       PRES   REMARKS
ST LOUIS INTL  MOSUNNY   39  28  64 S16G24    30.16F
SPIRIT OF STL  MOSUNNY   39  29  67 S12G18    30.16F
ST CHARLES     SUNNY     36  29  75 SE8       30.17F WCI  30

$$
MOZ072>076-082>087-097>100-106>115-281700-
...SOUTH CENTRAL AND SOUTHEAST MISSOURI...

CITY           SKY/WX    TMP DP  RH WIND       PRES   REMARKS
CAPE GIRARDEAU SUNNY     37  30  75 S13       30.33F WCI  29
FARMINGTON     SUNNY     37  30  75 SE13G23   30.23F WCI  29
POPLAR BLUFF   SUNNY     38  30  73 S14       30.32F WCI  30
WEST PLAINS    SUNNY     40  29  64 S13       30.21F

$$



USA.gov is the U.S. government's official web portal to all federal, state and local government web resources and services.